Change the Weather History Date:

Saturday, November 24, 2012

  Actual Average Record
Temperature  
Mean Temperature 21 °F 32 °F  
Max Temperature 29 °F 41 °F 62 °F (2001)
Min Temperature 12 °F 22 °F -2 °F (1951)
Degree Days  
Heating Degree Days 44 33  
Month to date heating degree days 579 646  
Since 1 July heating degree days 1272 1269  
Cooling Degree Days 0 0  
Month to date cooling degree days 0 0  
Year to date cooling degree days 1083 799  
Moisture  
Dew Point 15 °F    
Average Humidity 78    
Maximum Humidity 92    
Minimum Humidity 63    
Precipitation  
Precipitation 0.00 in 0.06 in 0.28 in (2001)
Month to date precipitation 1.14 1.66  
Year to date precipitation 22.32 33.05  
Snow  
Snow 0.00 in 0.20 in 2.40 in (1977)
Month to date snowfall T 2.0  
Since 1 July snowfall T 2.3  
Since 1 September snowfall T 2.3  
Snow Depth 0.00 in    
Sea Level Pressure  
Sea Level Pressure 30.18 in    
Wind  
Wind Speed 7 mph (SW)    
Max Wind Speed 18 mph    
Max Gust Speed 23 mph    
Visibility 10 miles    
Events      
T = Trace of Precipitation, MM = Missing Value Source: NWS Daily Summary

Daily Weather History Graph

Daily Weather History Graph

Search for Another Location

Airport or City:

Trip Planner

Search our weather history database for the weather conditions in past years. The results will help you decide how hot, cold, wet, or windy it might be!

Date:

Astronomy

Nov. 24, 2012 Rise Set
Actual Time 7:12 AM CST 4:40 PM CST
Civil Twilight 6:41 AM CST 5:11 PM CST
Nautical Twilight 6:06 AM CST 5:45 PM CST
Astronomical Twilight 5:33 AM CST 6:19 PM CST
Moon 2:28 PM CST (11/24) 3:26 AM CST (11/24)
Length of Visible Light 10h 29m
Length of Day
9h 27m
Waxing Gibbous, 87% of the Moon is Illuminated
Nov 24
Waxing Gibbous
Nov 28
Full
Dec 6
Last Quarter
Dec 13
New
Dec 19
First Quarter

Hourly Weather History & Observations

Time (CST) Temp. Windchill Dew Point Humidity Pressure Visibility Wind Dir Wind Speed Gust Speed Precip Events Conditions
12:19 AM 17.6 °F 10.7 °F 12.2 °F 79% 30.31 in 10.0 mi West 4.6 mph - N/A   Scattered Clouds
12:54 AM 17.1 °F 5.8 °F 12.0 °F 81% 30.36 in 10.0 mi WNW 9.2 mph - N/A   Clear
1:54 AM 16.0 °F 7.4 °F 12.0 °F 84% 30.36 in 10.0 mi WNW 5.8 mph - N/A   Scattered Clouds
2:02 AM 17.6 °F 9.3 °F 12.2 °F 79% 30.32 in 10.0 mi WNW 5.8 mph - N/A   Mostly Cloudy
2:54 AM 16.0 °F 7.4 °F 12.0 °F 84% 30.35 in 10.0 mi WNW 5.8 mph - N/A   Overcast
3:54 AM 15.1 °F 5.2 °F 10.9 °F 84% 30.35 in 10.0 mi WNW 6.9 mph - N/A   Overcast
4:54 AM 14.0 °F 6.5 °F 10.9 °F 88% 30.34 in 10.0 mi WNW 4.6 mph - N/A   Mostly Cloudy
5:10 AM 12.2 °F 4.3 °F 10.4 °F 92% 30.29 in 10.0 mi WNW 4.6 mph - N/A   Scattered Clouds
5:54 AM 12.0 °F 2.7 °F 10.0 °F 92% 30.34 in 10.0 mi West 5.8 mph - N/A   Clear
6:54 AM 12.0 °F 4.1 °F 9.0 °F 88% 30.34 in 10.0 mi NW 4.6 mph - N/A   Clear
7:54 AM 14.0 °F 6.5 °F 10.9 °F 88% 30.34 in 10.0 mi WNW 4.6 mph - N/A   Clear
8:54 AM 18.0 °F 12.7 °F 12.9 °F 81% 30.31 in 10.0 mi NW 3.5 mph - N/A   Clear
9:54 AM 19.0 °F - 14.0 °F 81% 30.31 in 10.0 mi Calm Calm - N/A   Mostly Cloudy
10:54 AM 21.9 °F 17.2 °F 14.0 °F 72% 30.29 in 10.0 mi SSW 3.5 mph - N/A   Overcast
11:54 AM 23.0 °F 15.8 °F 15.1 °F 72% 30.24 in 10.0 mi South 5.8 mph - N/A   Overcast
12:54 PM 25.0 °F 17.1 °F 16.0 °F 69% 30.18 in 10.0 mi SSE 6.9 mph - N/A   Mostly Cloudy
1:54 PM 26.1 °F 18.4 °F 16.0 °F 66% 30.15 in 10.0 mi South 6.9 mph - N/A   Overcast
2:54 PM 27.0 °F 18.0 °F 17.1 °F 66% 30.11 in 10.0 mi South 9.2 mph - N/A   Mostly Cloudy
3:54 PM 27.0 °F 16.1 °F 17.1 °F 66% 30.07 in 10.0 mi SSE 12.7 mph - N/A   Overcast
4:54 PM 26.1 °F 16.2 °F 17.1 °F 69% 30.03 in 10.0 mi SSE 10.4 mph - N/A   Overcast
5:54 PM 27.0 °F 15.6 °F 17.1 °F 66% 30.00 in 10.0 mi SSE 13.8 mph - N/A   Overcast
6:54 PM 27.0 °F 17.3 °F 17.1 °F 66% 30.00 in 10.0 mi South 10.4 mph - N/A   Clear
7:54 PM 27.0 °F 18.7 °F 18.0 °F 69% 29.98 in 10.0 mi SSE 8.1 mph - N/A   Clear
8:54 PM 27.0 °F 18.0 °F 19.0 °F 72% 29.95 in 10.0 mi SSE 9.2 mph - N/A   Mostly Cloudy
9:54 PM 28.0 °F 20.0 °F 19.0 °F 69% 29.92 in 10.0 mi South 8.1 mph - N/A   Clear
10:54 PM 28.9 °F 21.1 °F 19.9 °F 69% 29.90 in 10.0 mi South 8.1 mph - N/A   Clear
11:54 PM 28.9 °F 21.9 °F 19.9 °F 69% 29.88 in 10.0 mi South 6.9 mph - N/A   Partly Cloudy